Tiempo cada hora Daixi

Hoy, 14 Mayo, Viernes

Tiempo Temperatura Precipitaciones Viento Presión Humedad
00:00 +20°C° 0 mm 0 mps 683 mmHg 93%
01:00 +20°C° 0 mm 0 mps 682 mmHg 94%
02:00 +19°C° 0 mm 0 mps 682 mmHg 95%
03:00 +19°C° 0 mm 0 mps 682 mmHg 95%
04:00 +19°C° 0 mm 0 mps 682 mmHg 96%
05:00 +19°C° 0 mm 0 mps 682 mmHg 96%
06:00 +20°C° 0.2 mm 0 mps 683 mmHg 94%
07:00 +23°C° 0.2 mm 1 mps 683 mmHg 91%
08:00 +25°C° 0 mm 1 mps 684 mmHg 88%
09:00 +26°C° 0.1 mm 1 mps 684 mmHg 79%
10:00 +28°C° 0.1 mm 2 mps 684 mmHg 69%
11:00 +30°C° 0.1 mm 3 mps 684 mmHg 59%
12:00 +30°C° 0.1 mm 3 mps 684 mmHg 58%
13:00 +30°C° 0.1 mm 3 mps 683 mmHg 56%
14:00 +31°C° 0.1 mm 3 mps 683 mmHg 54%
15:00 +30°C° 0.1 mm 2 mps 683 mmHg 60%
16:00 +29°C° 0.1 mm 2 mps 682 mmHg 66%
17:00 +28°C° 0.1 mm 1 mps 682 mmHg 71%
18:00 +27°C° 0 mm 1 mps 682 mmHg 77%
19:00 +25°C° 0 mm 1 mps 682 mmHg 82%
20:00 +24°C° 0 mm 1 mps 682 mmHg 87%
21:00 +23°C° 0 mm 1 mps 682 mmHg 88%
22:00 +23°C° 0 mm 1 mps 682 mmHg 89%
23:00 +23°C° 0 mm 1 mps 683 mmHg 90%

Mañana, 15 Mayo, Sábado

Tiempo Temperatura Precipitaciones Viento Presión Humedad
00:00 +23°C° 0 mm 1 mps 682 mmHg 90%
01:00 +23°C° 0 mm 1 mps 682 mmHg 90%
02:00 +22°C° 0 mm 1 mps 682 mmHg 91%
03:00 +22°C° 0 mm 1 mps 682 mmHg 91%
04:00 +22°C° 0 mm 1 mps 682 mmHg 92%
05:00 +22°C° 0 mm 1 mps 682 mmHg 92%
06:00 +23°C° 0 mm 1 mps 683 mmHg 86%
07:00 +25°C° 0 mm 1 mps 683 mmHg 80%
08:00 +26°C° 0 mm 1 mps 684 mmHg 74%
09:00 +28°C° 0 mm 1 mps 684 mmHg 65%
10:00 +29°C° 0 mm 2 mps 684 mmHg 57%
11:00 +31°C° 0 mm 2 mps 684 mmHg 49%
12:00 +31°C° 0 mm 3 mps 684 mmHg 48%
13:00 +31°C° 0 mm 3 mps 683 mmHg 47%
14:00 +33°C° 0 mm 3 mps 683 mmHg 46%
15:00 +31°C° 0 mm 2 mps 683 mmHg 49%
16:00 +30°C° 0 mm 2 mps 682 mmHg 53%
17:00 +30°C° 0 mm 2 mps 682 mmHg 57%
18:00 +28°C° 0 mm 1 mps 682 mmHg 64%
19:00 +26°C° 0 mm 1 mps 682 mmHg 71%
20:00 +24°C° 0 mm 1 mps 682 mmHg 79%
21:00 +23°C° 0 mm 1 mps 682 mmHg 80%
22:00 +23°C° 0 mm 1 mps 682 mmHg 81%
23:00 +22°C° 0 mm 1 mps 682 mmHg 83%

Pasado mañana, 16 Mayo, Domingo

Tiempo Temperatura Precipitaciones Viento Presión Humedad
00:00 +22°C° 0 mm 1 mps 681 mmHg 83%
01:00 +22°C° 0 mm 1 mps 681 mmHg 84%
02:00 +22°C° 0 mm 1 mps 681 mmHg 84%
03:00 +22°C° 0 mm 1 mps 681 mmHg 85%
04:00 +21°C° 0 mm 1 mps 681 mmHg 86%
05:00 +21°C° 0 mm 1 mps 681 mmHg 86%
06:00 +23°C° 0 mm 1 mps 682 mmHg 82%
07:00 +24°C° 0 mm 1 mps 682 mmHg 78%
08:00 +25°C° 0 mm 1 mps 683 mmHg 73%
09:00 +27°C° 0 mm 2 mps 683 mmHg 64%
10:00 +28°C° 0 mm 2 mps 683 mmHg 55%
11:00 +30°C° 0 mm 3 mps 683 mmHg 45%
12:00 +30°C° 0 mm 3 mps 683 mmHg 45%
13:00 +32°C° 0 mm 4 mps 683 mmHg 45%
14:00 +32°C° 0 mm 4 mps 682 mmHg 45%
15:00 +30°C° 0 mm 3 mps 682 mmHg 50%
16:00 +29°C° 0 mm 3 mps 682 mmHg 56%
17:00 +28°C° 0 mm 2 mps 682 mmHg 61%
18:00 +27°C° 0 mm 2 mps 682 mmHg 66%
19:00 +25°C° 0 mm 1 mps 682 mmHg 70%
20:00 +24°C° 0 mm 1 mps 682 mmHg 74%
21:00 +24°C° 0 mm 1 mps 682 mmHg 74%
22:00 +24°C° 0 mm 1 mps 682 mmHg 74%
23:00 +22°C° 0 mm 0 mps 682 mmHg 74%

17 Mayo, Lunes

Tiempo Temperatura Precipitaciones Viento Presión Humedad
00:00 +23°C° 0.3 mm 1 mps 682 mmHg 77%
01:00 +23°C° 0.3 mm 1 mps 682 mmHg 80%
02:00 +22°C° 0.3 mm 1 mps 682 mmHg 83%
03:00 +22°C° 0.6 mm 1 mps 682 mmHg 86%
04:00 +22°C° 0.6 mm 1 mps 682 mmHg 89%
05:00 +21°C° 0.6 mm 1 mps 682 mmHg 91%
06:00 +22°C° 1 mm 1 mps 682 mmHg 92%
07:00 +22°C° 1 mm 1 mps 683 mmHg 93%
08:00 +20°C° 1 mm 0 mps 683 mmHg 94%
09:00 +20°C° 2 mm 0 mps 684 mmHg 94%
10:00 +20°C° 2 mm 0 mps 684 mmHg 94%
11:00 +20°C° 2 mm 0 mps 684 mmHg 95%
12:00 +23°C° 0.3 mm 1 mps 684 mmHg 92%
13:00 +24°C° 0.3 mm 1 mps 684 mmHg 89%
14:00 +24°C° 0.3 mm 1 mps 683 mmHg 86%
15:00 +24°C° 0.4 mm 1 mps 683 mmHg 88%
16:00 +23°C° 0.4 mm 1 mps 683 mmHg 89%
17:00 +23°C° 0.4 mm 1 mps 683 mmHg 91%
18:00 +22°C° 0.9 mm 1 mps 683 mmHg 93%
19:00 +22°C° 0.9 mm 1 mps 684 mmHg 96%
20:00 +21°C° 0.9 mm 1 mps 684 mmHg 98%
21:00 +21°C° 0.5 mm 1 mps 684 mmHg 98%
22:00 +21°C° 0.5 mm 1 mps 684 mmHg 98%
23:00 +19°C° 0.5 mm 0 mps 684 mmHg 98%

18 Mayo, Martes

Tiempo Temperatura Precipitaciones Viento Presión Humedad
00:00 +21°C° 0.3 mm 1 mps 684 mmHg 99%
01:00 +20°C° 0.3 mm 1 mps 684 mmHg 99%
02:00 +20°C° 0.3 mm 1 mps 683 mmHg 99%
03:00 +20°C° 5.1 mm 1 mps 683 mmHg 99%
04:00 +20°C° 5.1 mm 1 mps 683 mmHg 99%
05:00 +19°C° 5.1 mm 1 mps 683 mmHg 99%
06:00 +19°C° 4.8 mm 1 mps 684 mmHg 99%
07:00 +19°C° 4.8 mm 1 mps 684 mmHg 99%
08:00 +19°C° 4.8 mm 1 mps 685 mmHg 99%
09:00 +19°C° 0.7 mm 1 mps 685 mmHg 97%
10:00 +20°C° 0.7 mm 1 mps 685 mmHg 96%
11:00 +20°C° 0.7 mm 1 mps 685 mmHg 95%
12:00 +21°C° 0.1 mm 1 mps 685 mmHg 93%
13:00 +21°C° 0.1 mm 1 mps 684 mmHg 92%
14:00 +22°C° 0.1 mm 1 mps 684 mmHg 91%
15:00 +21°C° 0.3 mm 1 mps 684 mmHg 93%
16:00 +21°C° 0.3 mm 1 mps 684 mmHg 95%
17:00 +21°C° 0.3 mm 1 mps 684 mmHg 97%
18:00 +20°C° 0.7 mm 1 mps 684 mmHg 98%
19:00 +20°C° 0.7 mm 1 mps 684 mmHg 98%
20:00 +20°C° 0.7 mm 1 mps 684 mmHg 99%
21:00 +19°C° 0.1 mm 1 mps 685 mmHg 99%
22:00 +19°C° 0.1 mm 1 mps 685 mmHg 99%
23:00 +19°C° 0.1 mm 1 mps 685 mmHg 99%

19 Mayo, Miércoles

Tiempo Temperatura Precipitaciones Viento Presión Humedad
00:00 +19°C° 0.1 mm 1 mps 684 mmHg 99%
01:00 +17°C° 0.1 mm 0 mps 684 mmHg 99%
02:00 +17°C° 0.1 mm 0 mps 683 mmHg 99%
03:00 +17°C° 0.7 mm 0 mps 683 mmHg 99%
04:00 +17°C° 0.7 mm 0 mps 684 mmHg 99%
05:00 +17°C° 0.7 mm 0 mps 684 mmHg 99%
06:00 +17°C° 0.8 mm 0 mps 684 mmHg 98%
07:00 +19°C° 0.8 mm 1 mps 684 mmHg 98%
08:00 +20°C° 0.8 mm 1 mps 685 mmHg 97%
09:00 +20°C° 0.4 mm 1 mps 684 mmHg 96%
10:00 +20°C° 0.4 mm 1 mps 684 mmHg 96%
11:00 +20°C° 0.4 mm 1 mps 684 mmHg 95%
12:00 +21°C° 0 mm 1 mps 684 mmHg 91%
13:00 +22°C° 0 mm 1 mps 684 mmHg 88%
14:00 +22°C° 0 mm 1 mps 683 mmHg 84%
15:00 +23°C° 0 mm 1 mps 683 mmHg 81%
16:00 +23°C° 0 mm 1 mps 683 mmHg 77%
17:00 +24°C° 0 mm 1 mps 683 mmHg 74%
18:00 +23°C° 0 mm 1 mps 683 mmHg 80%
19:00 +19°C° 0 mm 0 mps 683 mmHg 86%
20:00 +18°C° 0 mm 0 mps 683 mmHg 92%
21:00 +18°C° 0 mm 0 mps 683 mmHg 93%
22:00 +17°C° 0 mm 0 mps 683 mmHg 94%
23:00 +17°C° 0 mm 0 mps 683 mmHg 95%
Mostrar más

Necesitamos Su Consentimiento

Meteoprog y nuestros Proveedores de Servicios pueden almacenar y acceder a sus datos personales como cookies, identificadores de dispositivo u otras tecnologías similares de su dispositivo y procesar dichos datos para personalizar contenido y anuncios, además de ofrecer funciones de redes sociales y analizar el tráfico.

  • Almacenar y/o acceder a información en su dispositivo

    Se puede almacenar o acceder a cookies, identificadores de dispositivo u otra información de su dispositivo para los fines anteriormente indicados.

  • Anuncios y contenido personalizados, medición de anuncios y contenido, percepciones del público, y desarrollo de productos

    Los anuncios y el contenido pueden personalizarse en base a su perfil. Se pueden añadir más datos para personalizar mejor los anuncios y contenidos. Se puede medir el rendimiento de los anuncios y contenidos. Se puede obtener la percepción sobre el público que ha visto los anuncios y contenidos. Dichos datos pueden usarse para desarrollar o mejorar la experiencia del usuario, sistemas y software.

Al hacer clic en ‘Estoy De Acuerdo’ usted permitirá el uso de las cookies, identificadores de dispositivo, balizas web u otras tecnologías similares indicadas. Su configuración puede cambiarse desde el navegador de su dispositivo.

Para ciertos fines, los intereses legítimos pueden ser considerados por encima del consentimiento. Puede leer más sobre ello en nuestra Política de Privacidad y Cookies.